Weather History for Hill City, KS

Change the Weather History Date:

Friday, February 15, 2013

  Actual Average Record
Temperature  
Mean Temperature 26 °F 33 °F  
Max Temperature 41 °F 46 °F 78 °F (1921)
Min Temperature 11 °F 20 °F -6 °F (2007)
Degree Days  
Heating Degree Days 40    
Moisture  
Dew Point 12 °F    
Average Humidity 65    
Maximum Humidity 88    
Minimum Humidity 32    
Precipitation  
Precipitation 0.00 in 0.02 in 0.02 in (1998)
Month to date precipitation 0.05 0.27  
Year to date precipitation 0.14 0.72  
Sea Level Pressure  
Sea Level Pressure 30.43 in    
Wind  
Wind Speed 6 mph (WNW)    
Max Wind Speed 18 mph    
Max Gust Speed 28 mph    
Visibility 10 miles    
Events      
T = Trace of Precipitation, MM = Missing Value Source: NWS Daily Summary

Daily Weather History Graph

Daily Weather History Graph

Search for Another Location

Airport:

Trip Planner

Search our weather history database for the weather conditions in past years. The results will help you decide how hot, cold, wet, or windy it might be!

Date:

Astronomy

Feb. 15, 2013 Rise Set
Actual Time 7:30 AM CST 6:16 PM CST
Civil Twilight 7:03 AM CST 6:44 PM CST
Nautical Twilight 6:32 AM CST 7:15 PM CST
Astronomical Twilight 6:00 AM CST 7:46 PM CST
Moon 10:10 AM CST (2/15) No Moon Set
Length of Visible Light 11h 40m
Length of Day
10h 45m
Waxing Crescent, 30% of the Moon is Illuminated
Feb 15
Waxing Crescent
Feb 17
First Quarter
Feb 25
Full
Mar 4
Last Quarter
Mar 11
New

Hourly Weather History & Observations

Time (CST) Temp. Windchill Dew Point Humidity Pressure Visibility Wind Dir Wind Speed Gust Speed Precip Events Conditions
12:53 AM 17.1 °F 7.6 °F 12.9 °F 84% 30.42 in 10.0 mi NNW 6.9 mph - N/A   Clear
1:53 AM 17.1 °F 7.6 °F 12.0 °F 81% 30.43 in 10.0 mi West 6.9 mph - N/A   Clear
3:53 AM 14.0 °F - 10.9 °F 88% 30.42 in 10.0 mi Calm Calm - N/A   Clear
4:53 AM 14.0 °F - 10.0 °F 84% 30.44 in 10.0 mi Calm Calm - N/A   Clear
5:53 AM 12.0 °F - 9.0 °F 88% 30.45 in 10.0 mi Calm Calm - N/A   Clear
6:53 AM 12.0 °F 4.1 °F 9.0 °F 88% 30.46 in 10.0 mi West 4.6 mph - N/A   Clear
7:53 AM 14.0 °F 5.1 °F 10.9 °F 88% 30.47 in 10.0 mi WSW 5.8 mph - N/A   Overcast
8:00 AM 15.8 °F 10.2 °F 12.2 °F 86% 30.38 in 10.0 mi WSW 3.5 mph - N/A   Overcast
8:31 AM 17.6 °F 9.3 °F 12.2 °F 79% 30.39 in 10.0 mi WSW 5.8 mph - N/A   Scattered Clouds
8:53 AM 18.0 °F 11.1 °F 15.1 °F 88% 30.47 in 10.0 mi WSW 4.6 mph - N/A   Clear
9:53 AM 26.1 °F 18.4 °F 19.0 °F 75% 30.46 in 10.0 mi West 6.9 mph - N/A   Clear
10:53 AM 30.9 °F 25.2 °F 21.0 °F 67% 30.43 in 10.0 mi WSW 5.8 mph - N/A   Overcast
11:53 AM 36.0 °F 28.5 °F 17.1 °F 46% 30.43 in 10.0 mi North 10.4 mph - N/A   Overcast
12:53 PM 37.9 °F 30.5 °F 16.0 °F 41% 30.41 in 10.0 mi NNW 11.5 mph 19.6 mph N/A   Scattered Clouds
1:53 PM 37.9 °F 30.0 °F 12.9 °F 36% 30.38 in 10.0 mi NW 12.7 mph 21.9 mph N/A   Scattered Clouds
2:53 PM 39.9 °F 30.8 °F 12.0 °F 32% 30.37 in 10.0 mi NW 18.4 mph 27.6 mph N/A   Overcast
3:53 PM 37.9 °F 29.2 °F 14.0 °F 38% 30.37 in 10.0 mi NW 15.0 mph 23.0 mph N/A   Overcast
4:53 PM 37.0 °F 27.7 °F 12.9 °F 37% 30.38 in 10.0 mi NNW 16.1 mph 24.2 mph N/A   Overcast
5:53 PM 35.1 °F 27.4 °F 12.9 °F 40% 30.40 in 10.0 mi North 10.4 mph 21.9 mph N/A   Overcast
6:53 PM 30.0 °F 20.0 °F 14.0 °F 51% 30.44 in 10.0 mi North 12.7 mph - N/A   Scattered Clouds
7:53 PM 26.1 °F 16.8 °F 10.0 °F 51% 30.46 in 10.0 mi North 9.2 mph - N/A   Clear
8:53 PM 18.0 °F 11.1 °F 8.1 °F 65% 30.47 in 10.0 mi NNW 4.6 mph - N/A   Clear
9:53 PM 18.0 °F 12.7 °F 8.1 °F 65% 30.46 in 10.0 mi WSW 3.5 mph - N/A   Clear
10:53 PM 18.0 °F 9.8 °F 9.0 °F 68% 30.44 in 10.0 mi NW 5.8 mph - N/A   Clear
11:53 PM 17.1 °F 10.0 °F 9.0 °F 71% 30.43 in 10.0 mi West 4.6 mph - N/A   Clear